Theta_e
323 323 324 323 323 322 321 321 319 320 323 320 318 317 322 330 318 311 331 343 325 326 340 335 335 342 337 332 334 337 339 342 342 339 340 343 343 343 345 345 346 347 347 348 349 349 349 346 345 347 347 349 350 350 351 352 352 353 355 356 356 357 357 357 358 358 358 358 358 358 359 358 358 358 358 357 357 356 356 356 355 354 354 354 353 352 352
323 322 325 324 322 322 320 321 322 321 322 321 319 321 324 326 321 320 332 339 333 330 331 329 332 335 333 335 340 338 338 343 346 343 341 341 341 342 344 344 346 347 347 348 348 349 351 349 347 347 348 349 350 350 352 352 353 355 355 356 357 357 358 358 358 358 358 359 359 359 359 359 359 358 358 358 358 357 357 356 355 355 354 354 353 353 352
325 323 324 324 322 322 319 320 323 322 321 322 320 321 323 323 322 323 328 332 334 335 335 334 332 332 333 338 346 350 349 353 356 352 346 343 341 343 344 344 346 347 347 348 349 350 352 350 348 347 349 350 350 351 352 353 354 355 356 357 358 358 358 359 358 359 359 359 359 360 359 359 359 359 359 358 358 358 357 356 356 355 354 354 354 353 353
326 323 323 323 323 322 318 316 321 322 319 320 319 321 324 322 321 322 321 322 328 335 335 332 332 333 332 336 346 354 360 367 368 363 356 350 344 343 345 345 346 348 347 348 349 349 350 348 346 347 349 350 351 351 352 353 355 356 357 357 358 359 359 359 359 360 359 359 360 360 360 360 359 359 359 358 358 358 357 357 356 355 355 354 354 354 353
327 323 322 322 323 321 317 316 321 322 322 322 321 323 326 324 323 322 318 319 327 331 330 329 331 331 332 333 337 342 351 363 372 369 359 351 346 344 345 346 346 345 344 344 347 347 346 345 346 348 350 350 351 352 352 353 355 356 357 358 358 359 360 359 360 360 359 360 360 360 360 360 360 360 359 359 359 358 357 357 356 356 355 355 355 354 354
326 322 321 325 325 320 319 322 325 324 324 324 321 321 324 324 324 324 323 324 326 327 329 331 330 330 332 334 335 341 347 353 366 371 361 351 348 344 342 344 344 344 344 343 344 344 344 344 346 347 349 351 351 352 353 353 355 356 357 359 359 359 360 360 361 361 360 361 360 360 361 360 360 360 359 359 359 358 358 357 356 356 356 355 355 354 354
325 324 324 328 330 326 327 335 335 324 323 326 325 326 329 329 326 324 327 333 333 332 334 333 332 336 341 341 343 346 346 348 357 365 361 355 352 347 344 344 345 347 349 347 346 344 342 344 346 347 348 351 351 352 353 354 354 356 357 359 359 360 360 361 361 361 361 361 361 361 361 360 360 360 359 359 359 358 358 357 357 356 355 355 355 355 354
326 328 328 330 334 332 332 338 337 329 326 326 326 330 340 350 344 331 328 342 350 349 344 339 340 347 349 349 350 349 348 350 350 350 353 355 353 350 348 348 351 354 351 345 344 344 342 343 346 347 347 350 351 352 353 353 354 356 357 358 359 360 360 361 361 361 361 361 361 361 361 360 360 360 360 359 359 358 358 357 357 356 356 356 356 355 354
325 327 328 329 330 328 330 336 338 334 333 331 327 328 342 362 361 341 333 347 364 363 351 341 341 347 351 354 358 355 352 353 349 344 345 347 349 351 350 348 347 344 341 340 339 341 344 344 345 347 347 349 350 351 352 353 354 355 356 357 358 359 360 361 361 361 361 361 361 361 361 361 360 360 360 359 359 358 358 357 357 356 356 356 355 355 355
326 326 329 331 327 328 336 338 337 336 334 335 335 330 342 365 367 351 346 354 362 359 349 340 343 353 356 356 363 363 355 351 352 352 350 345 346 351 351 354 355 344 337 340 341 341 345 345 345 347 347 348 350 351 353 354 353 354 355 356 357 358 359 360 361 361 362 361 362 361 361 361 361 360 360 360 359 359 358 357 357 356 356 356 355 356 355
328 333 337 334 329 334 342 339 336 336 334 336 337 326 336 362 368 356 354 358 357 352 345 340 343 352 357 363 371 368 355 350 354 363 368 367 370 366 349 345 354 350 340 340 342 343 344 345 346 347 347 348 351 351 353 353 353 354 354 355 356 357 358 359 360 361 361 362 361 361 361 361 360 361 360 360 359 359 358 358 357 356 356 356 355 355 355
334 341 343 338 333 340 342 336 334 334 334 339 334 322 332 358 364 355 356 359 358 355 349 345 345 349 359 368 369 360 354 356 356 357 363 368 376 382 363 345 342 343 341 345 347 345 344 345 346 347 347 348 350 351 353 354 353 354 354 354 355 356 357 358 359 360 361 361 362 361 361 361 360 360 360 360 360 359 358 358 358 357 356 356 356 355 355
342 343 341 338 337 341 340 334 334 335 336 335 329 327 341 361 361 356 356 355 355 356 354 352 353 354 356 358 357 354 360 371 365 355 355 355 356 362 362 354 348 344 342 346 348 346 345 346 346 347 348 349 349 350 352 354 354 355 354 354 355 355 356 357 358 360 360 361 361 361 361 361 361 360 360 360 360 359 359 358 358 357 357 356 356 356 355
346 344 342 341 339 338 336 333 334 336 336 334 331 334 344 356 360 359 357 353 352 353 356 358 357 354 354 355 357 358 360 364 361 355 357 361 360 355 354 354 351 348 347 348 348 349 350 349 349 349 349 349 349 349 350 352 354 355 355 355 355 355 356 357 357 359 360 360 361 361 361 361 360 360 360 360 360 359 359 358 358 357 357 356 356 356 356
345 343 342 343 343 339 335 334 337 339 338 337 335 334 339 349 358 360 360 358 355 355 359 360 358 358 360 358 358 359 355 353 354 353 353 357 360 356 354 354 352 352 357 354 348 349 353 353 354 354 350 349 350 349 349 351 352 354 354 355 355 355 355 356 357 358 359 360 361 361 361 361 360 360 360 360 360 360 359 359 358 357 356 356 356 354 354
345 343 341 342 343 339 336 335 337 337 335 334 333 333 341 352 356 357 360 361 357 357 361 361 358 359 360 357 356 356 354 350 350 350 349 350 350 349 350 351 349 348 352 350 345 346 351 354 356 356 355 353 352 350 351 351 351 352 353 354 355 356 355 355 356 357 358 360 360 361 361 361 360 360 360 359 359 360 359 359 358 357 356 355 354 352 351
343 344 344 345 344 340 336 336 335 333 331 331 330 331 340 352 354 353 357 357 355 355 357 357 357 357 355 354 353 352 351 349 347 346 346 345 347 348 348 347 347 346 346 345 345 346 348 351 354 356 357 356 355 354 354 354 354 354 354 354 355 355 355 355 355 355 356 358 359 361 361 361 360 360 359 359 359 359 359 358 357 356 354 353 352 350 349
341 342 342 343 343 338 334 334 334 332 330 330 330 329 333 340 344 347 350 351 351 352 352 352 354 352 349 349 349 348 348 348 346 345 344 342 344 346 345 345 346 345 344 345 345 345 346 348 350 353 356 356 356 357 357 358 358 357 355 356 355 354 354 355 354 354 355 356 358 359 361 361 361 360 360 359 359 359 358 358 356 354 352 351 350 348 347
341 340 338 339 339 336 333 333 334 333 331 330 331 331 331 332 334 337 340 344 345 346 348 349 349 348 347 348 347 346 347 347 346 346 345 344 343 344 344 344 343 342 345 349 349 346 346 347 347 351 355 356 357 358 359 359 360 359 358 357 356 356 355 354 353 354 354 354 356 358 360 361 361 361 360 360 359 358 357 356 354 352 349 348 346 345 344
342 341 339 339 338 335 333 333 333 334 333 332 331 332 332 332 332 332 333 337 340 342 344 345 346 346 345 346 345 345 345 346 346 346 344 344 343 342 341 341 341 340 342 347 348 346 345 345 346 348 351 354 356 358 359 360 361 361 361 359 358 357 356 354 353 353 353 354 356 357 359 361 361 361 361 359 358 357 357 356 353 348 346 345 344 343 342
340 341 338 339 340 338 334 333 332 333 333 333 333 331 330 331 332 331 331 332 334 336 338 339 340 341 341 342 343 344 344 345 346 346 346 345 343 341 340 341 342 341 340 341 342 341 341 342 343 344 346 348 351 354 357 359 361 363 362 362 361 360 358 357 355 353 353 355 355 357 359 360 360 360 360 359 358 357 356 356 353 350 349 347 345 344 343
339 340 339 339 341 341 337 333 331 331 332 333 333 332 330 329 330 330 331 331 331 332 333 334 336 337 338 339 340 341 343 344 345 346 347 346 345 343 342 343 343 342 342 341 340 339 339 339 340 341 343 344 346 349 353 356 359 361 363 363 362 362 362 361 359 358 358 357 358 358 358 357 356 355 354 355 355 354 353 353 353 355 354 349 345 345 344
339 338 337 338 339 338 334 331 330 332 333 333 332 330 329 328 326 327 329 331 331 331 331 331 333 335 337 338 339 340 341 342 343 343 344 345 346 346 345 345 345 344 344 344 343 342 341 338 336 339 342 343 344 345 348 351 354 356 359 359 356 354 354 353 353 354 354 355 356 355 353 352 350 344 340 341 345 348 350 350 350 352 351 346 344 347 347
338 337 336 338 338 335 331 330 329 330 332 332 331 330 329 327 324 323 325 327 329 331 331 331 331 333 335 336 338 340 340 341 342 342 341 342 343 344 344 345 346 346 345 345 344 344 342 339 337 339 341 343 343 343 344 347 350 352 354 353 348 344 343 343 343 343 342 342 344 344 345 347 344 338 334 333 334 338 344 347 347 346 346 345 345 347 347
333 336 336 335 335 333 331 330 329 329 331 331 329 328 328 327 324 322 322 324 326 327 329 329 329 330 332 335 336 338 339 340 339 339 340 340 341 341 342 343 344 344 345 343 343 343 343 341 341 342 343 344 344 344 344 344 346 347 347 345 342 340 340 340 339 339 338 337 336 336 338 339 338 337 337 333 328 328 333 339 342 342 343 343 344 345 345
329 332 332 332 332 333 333 333 331 330 330 330 327 326 326 326 326 325 324 323 323 325 327 328 328 327 329 332 334 336 337 338 338 338 339 340 339 340 340 340 341 342 343 343 342 342 342 342 343 344 344 345 346 346 345 343 342 341 341 340 339 338 338 338 337 337 337 338 338 337 337 337 336 336 337 335 330 328 330 333 335 337 338 339 341 342 343
329 330 331 332 332 332 333 333 331 329 329 330 328 327 326 326 327 328 328 326 325 325 326 326 326 326 327 328 331 335 336 336 337 337 338 338 339 339 338 338 338 339 339 340 341 341 341 342 342 343 344 345 347 347 346 343 340 339 339 338 338 338 337 337 336 336 336 336 337 337 336 336 335 334 334 335 335 335 335 334 331 330 332 336 338 340 341
330 331 332 332 332 330 329 329 328 328 328 329 329 329 328 328 327 328 329 329 327 326 326 326 327 328 328 327 328 332 334 335 337 338 337 337 338 337 337 336 337 337 337 337 338 339 340 340 341 342 343 344 346 346 345 343 341 340 340 339 338 338 337 336 335 335 334 335 335 335 334 333 334 334 334 335 335 335 334 332 329 327 328 331 335 338 340
330 330 329 329 329 328 327 327 327 328 327 327 328 329 329 328 328 329 329 329 328 328 328 328 327 327 326 325 325 328 331 332 334 335 335 335 336 336 336 336 336 336 336 336 336 337 338 338 339 340 341 343 345 346 345 343 342 341 340 340 338 338 337 336 336 335 334 334 334 335 335 335 335 335 334 334 333 332 329 329 330 330 330 331 335 337 338
327 327 326 327 327 327 326 326 326 327 327 326 327 328 328 329 330 330 330 330 330 329 330 331 329 328 327 325 324 323 324 326 328 329 331 333 334 334 334 335 336 336 335 334 334 335 335 337 337 338 339 342 344 345 345 344 343 341 340 339 338 338 338 337 336 336 335 335 334 334 335 336 335 335 334 333 332 331 328 328 330 331 331 332 334 335 334
327 327 327 328 327 327 327 326 326 327 327 326 326 327 328 329 331 331 330 330 330 330 330 331 332 332 330 327 323 320 320 322 324 325 327 329 331 333 334 334 335 336 335 334 334 335 335 335 336 336 338 341 342 343 344 343 342 341 340 338 337 337 337 336 336 335 335 334 333 333 334 334 334 334 333 332 330 328 327 327 328 329 329 329 329 331 333
327 327 327 327 327 327 328 328 328 328 328 327 326 326 326 327 328 329 330 330 330 330 331 332 332 331 329 325 322 320 320 321 322 323 324 325 327 330 332 333 334 334 334 333 334 334 335 334 335 335 337 339 341 343 343 343 342 340 339 337 337 336 336 335 335 334 334 333 332 332 333 333 333 333 332 330 329 328 327 327 327 328 329 328 328 330 333
327 328 328 328 328 328 328 328 329 329 329 329 329 329 328 328 327 328 329 329 329 329 331 332 330 328 326 324 322 320 320 322 324 325 325 325 325 326 329 332 332 333 334 335 335 334 334 333 334 335 337 338 339 340 340 340 340 339 339 338 337 337 337 336 335 334 333 333 332 332 332 332 333 332 331 329 329 329 328 328 328 328 329 330 330 332 335
327 328 328 328 328 328 329 328 328 329 329 329 330 330 330 330 330 330 331 331 329 328 329 329 328 328 327 326 325 322 323 326 328 327 326 326 327 327 328 330 330 331 332 334 335 336 335 334 334 335 335 336 337 337 337 337 338 338 339 339 339 338 338 338 337 336 335 334 333 333 333 332 332 331 330 330 330 330 329 329 329 328 328 327 328 331 334
326 326 326 327 327 328 328 328 329 329 329 329 329 329 329 330 330 330 331 331 330 327 326 326 328 328 328 328 327 327 328 329 329 328 328 329 330 330 330 331 331 331 331 331 332 335 336 335 334 334 335 335 336 337 337 338 338 338 338 339 339 339 339 339 338 338 337 336 335 335 334 333 333 332 332 331 331 331 330 329 329 329 328 326 327 329 330
325 325 326 326 327 327 327 328 329 329 329 329 329 329 329 329 329 329 329 328 327 326 326 326 327 328 328 328 329 330 330 330 329 329 330 330 330 330 331 331 331 331 332 332 332 333 334 335 335 334 334 335 335 335 335 337 337 337 337 338 339 339 339 339 339 338 337 337 336 335 335 334 334 333 333 332 331 331 331 330 330 330 330 330 329 329 328
325 325 325 326 326 327 327 328 328 328 329 329 329 328 329 328 327 327 327 326 326 326 327 327 327 327 328 328 328 328 329 329 329 329 329 330 330 330 331 331 331 331 332 332 332 332 332 333 334 333 333 334 334 333 333 333 334 335 336 337 337 337 337 338 338 337 337 337 336 335 335 334 333 332 331 331 330 330 330 329 329 329 329 329 329 329 329
324 324 324 324 325 325 326 326 326 326 327 328 327 327 327 326 326 325 326 326 326 327 327 326 327 327 327 327 327 327 327 327 327 328 328 329 329 330 330 330 331 332 331 331 331 330 329 331 332 333 334 335 335 335 333 332 332 333 334 335 335 335 335 335 335 335 336 336 336 335 335 334 333 332 331 330 330 329 329 328 328 328 327 327 327 328 328
323 323 323 323 324 324 324 324 324 324 325 326 326 326 325 325 325 325 325 325 326 326 327 326 326 326 326 326 326 326 326 326 327 327 327 328 328 328 328 329 330 330 330 329 329 328 328 329 329 330 331 333 334 335 334 332 331 332 333 333 333 333 332 332 332 332 333 333 334 334 334 333 333 333 331 330 330 329 328 328 328 327 326 325 325 325 326
323 323 324 323 323 324 324 324 324 323 323 323 324 324 324 324 325 325 325 325 325 326 326 326 326 326 326 326 325 325 325 326 326 326 326 327 327 327 327 328 328 327 326 327 327 327 327 327 327 328 329 330 330 331 332 332 332 332 332 332 332 332 332 331 330 330 331 331 331 331 332 332 332 333 333 331 330 330 329 328 327 327 326 325 325 325 324
323 323 323 322 322 323 324 323 323 322 322 322 323 323 324 324 325 325 325 325 326 326 326 326 326 326 325 325 325 325 325 325 326 326 326 326 325 325 327 327 325 324 324 324 324 325 325 326 325 325 327 329 330 329 329 330 330 330 330 330 330 331 331 330 329 329 329 329 329 329 329 330 329 329 330 330 330 330 329 328 327 327 327 327 327 326 324
321 321 320 321 321 321 320 320 321 321 321 321 322 322 323 323 324 323 323 323 324 324 325 326 326 325 324 324 324 323 323 323 324 324 325 326 325 326 326 326 324 322 322 322 322 323 325 326 325 324 324 326 328 328 328 328 328 327 327 327 328 329 330 330 329 328 329 329 328 327 327 326 326 326 327 327 328 329 329 328 329 329 328 327 326 325 324
318 318 318 319 319 318 318 318 319 319 319 319 319 319 320 320 320 320 320 320 320 320 320 321 321 321 321 321 321 320 321 321 321 322 323 325 326 326 325 324 324 322 322 321 321 322 324 326 326 325 323 323 323 324 325 326 327 327 326 327 328 329 329 329 328 327 328 328 327 326 325 324 325 326 327 327 327 329 330 330 330 329 329 328 327 326 325
317 317 317 317 317 317 317 316 317 317 318 317 317 317 317 317 317 317 317 317 317 317 317 316 317 317 317 317 317 317 317 318 320 321 323 324 325 325 324 324 324 324 323 322 322 322 323 323 323 323 321 321 320 320 321 323 325 326 326 327 328 328 328 328 327 326 326 326 326 326 324 324 324 325 327 328 329 330 331 330 330 330 329 328 327 327 326
315 316 316 317 316 316 316 316 316 316 316 316 316 316 316 316 316 316 316 316 316 316 315 315 315 315 315 315 315 315 315 316 317 320 322 323 324 325 324 323 323 322 321 321 321 321 321 321 320 320 320 320 319 319 319 319 320 321 323 324 326 326 326 325 325 324 324 325 325 325 324 324 324 324 325 327 328 329 329 329 328 327 326 327 327 326 326
313 313 314 315 315 315 315 316 315 315 315 315 315 315 315 315 315 315 315 315 315 314 314 314 314 314 315 315 314 314 314 315 315 316 318 319 320 321 320 320 319 318 317 317 318 318 319 319 319 319 319 320 319 319 319 318 318 318 318 319 320 321 321 322 322 321 322 323 324 324 324 324 323 324 324 325 325 327 327 327 325 323 323 324 324 322 321
311 311 312 313 314 314 315 315 314 314 315 316 316 315 314 314 314 314 314 314 314 313 313 314 314 314 314 314 314 313 313 313 313 313 314 314 314 315 314 314 314 314 314 313 314 315 316 317 317 318 318 318 319 318 318 318 318 318 317 317 317 317 317 318 318 318 318 318 319 321 322 322 323 323 324 323 323 323 324 323 321 320 320 319 318 316 316
310 310 310 311 311 312 312 313 313 313 313 314 315 315 314 314 314 313 313 312 312 312 312 312 312 313 313 312 312 312 312 312 311 311 311 311 311 311 311 311 311 312 311 311 311 311 313 315 316 316 317 317 317 317 317 317 317 318 317 317 317 317 316 316 316 316 316 316 315 315 316 316 318 319 319 319 319 320 319 318 318 317 316 315 313 313 313
309 309 309 309 309 310 310 311 311 311 311 311 311 313 314 314 314 313 313 312 311 311 311 310 310 311 311 311 311 311 310 310 310 309 309 308 308 309 309 309 309 310 310 309 309 309 310 313 315 316 316 315 315 316 316 316 316 316 316 316 316 316 316 316 316 316 315 315 315 314 314 313 313 313 313 313 314 314 314 314 314 314 313 313 312 313 312
308 308 308 308 308 308 308 309 309 310 310 310 309 310 312 313 314 314 314 312 311 310 309 309 309 309 309 310 310 309 309 308 308 307 306 306 306 306 306 306 306 307 307 307 307 307 308 310 313 314 314 314 314 314 314 314 314 314 314 314 314 314 315 316 316 316 315 315 315 314 314 314 314 313 313 312 312 312 312 312 312 312 312 312 312 312 312
306 306 307 307 306 306 307 308 309 309 309 309 309 309 310 311 312 314 314 312 310 309 309 308 308 308 308 308 307 308 308 307 306 306 305 305 304 304 304 305 304 305 305 306 306 306 306 308 310 311 312 312 312 311 311 311 311 311 311 311 311 311 312 312 313 313 313 313 313 313 313 313 313 313 313 313 312 312 312 312 311 311 311 311 311 311 311
306 305 305 305 305 306 306 307 308 308 309 308 308 308 308 308 309 310 310 310 308 307 307 306 307 307 307 306 305 305 305 305 305 305 305 304 304 304 304 304 304 304 304 304 304 304 305 306 307 309 309 309 309 308 308 307 307 307 308 308 308 308 309 309 309 310 310 310 310 310 310 310 311 311 311 311 311 310 310 310 310 310 310 310 310 310 309
Wind_Speed
12 10 13 14 12 12 13 15 17 16 14 15 18 16 11 11 11 12 9 11 11 9 8 9 9 9 10 10 8 7 7 7 8 9 10 12 13 14 16 16 15 15 15 15 15 16 16 17 22 26 28 31 33 33 34 36 38 40 41 40 40 40 40 41 43 43 42 41 40 40 40 40 40 40 40 40 39 38 38 39 39 39 38 38 38 37 38
14 13 13 13 11 12 11 13 17 17 16 18 19 16 13 13 14 12 9 11 12 9 10 12 11 12 10 6 4 5 6 7 8 9 10 11 13 14 15 16 15 16 16 16 15 16 16 16 19 23 26 28 31 33 34 36 38 40 40 40 40 40 41 43 44 42 40 40 39 39 39 40 40 40 39 39 38 38 38 39 38 37 37 37 37 38 38
11 12 11 10 10 11 13 13 13 16 18 20 20 17 13 11 13 11 9 9 9 8 8 10 10 9 5 3 4 6 7 8 9 9 10 11 12 12 13 14 14 15 15 14 13 14 15 17 20 23 26 29 32 33 33 36 38 39 39 40 40 41 43 44 42 40 40 40 39 39 40 40 40 40 39 38 37 37 37 37 37 36 36 36 37 38 38
7 7 8 13 16 11 11 14 15 16 17 16 16 14 11 11 12 12 11 8 7 9 8 7 8 7 5 6 7 7 7 7 8 9 10 11 10 10 11 12 13 14 16 16 16 16 16 17 21 26 28 29 30 31 33 36 38 38 38 39 39 41 41 40 38 39 40 40 40 40 40 40 40 39 38 37 37 37 36 37 36 36 36 37 38 39 38
6 9 10 13 14 9 9 16 18 17 14 13 12 11 11 13 13 12 12 10 9 10 7 6 7 9 9 10 9 8 8 8 8 9 10 11 11 11 11 12 12 14 15 15 17 18 18 19 25 31 32 30 31 34 38 38 36 36 37 38 39 39 38 36 37 38 39 39 39 40 41 41 39 38 37 38 38 37 37 36 36 36 37 38 38 38 38
7 12 12 10 6 7 10 10 12 15 14 12 11 10 11 13 11 8 8 10 12 10 7 8 11 10 9 9 8 8 8 7 7 8 9 10 11 11 12 13 13 14 14 14 15 17 21 26 31 34 34 34 35 37 36 34 34 35 37 37 37 37 36 37 38 38 38 39 40 40 40 40 38 38 38 39 39 38 36 35 35 37 38 39 39 39 38
6 8 7 5 4 8 8 5 4 13 14 12 11 11 11 12 12 8 5 7 11 9 7 9 8 5 5 5 4 4 5 6 7 7 8 9 9 10 11 12 12 11 11 11 11 14 22 28 30 31 32 32 31 30 29 30 33 36 36 36 36 36 36 37 38 38 38 39 39 39 38 38 38 38 39 39 38 37 35 35 38 39 39 39 40 39 39
4 4 2 4 6 9 10 7 2 2 5 8 11 9 8 7 8 9 8 8 8 7 7 7 6 6 4 2 0 2 4 4 6 7 8 8 8 9 9 10 12 11 11 13 15 18 22 25 26 28 30 31 29 28 30 33 34 36 35 34 35 35 35 36 37 38 39 39 38 38 37 37 38 39 39 39 38 37 36 37 38 38 38 39 39 39 38
4 3 4 5 7 11 9 3 4 6 5 3 7 9 7 6 5 8 9 10 8 5 7 8 8 6 3 4 4 5 6 5 5 7 8 7 8 8 8 8 10 9 10 14 17 19 20 21 24 27 29 31 30 29 30 32 33 34 33 33 34 35 36 37 39 40 40 40 38 37 36 37 38 39 39 38 38 38 38 38 37 38 38 38 38 38 38
3 4 5 4 5 6 4 4 10 11 11 13 9 9 7 6 5 7 8 10 9 7 10 11 8 4 6 3 4 7 7 7 7 7 6 4 5 6 7 8 8 9 11 13 16 20 22 23 28 30 28 27 27 26 27 30 31 31 31 32 34 35 37 39 41 41 42 41 39 38 37 38 39 39 38 39 39 40 40 39 38 39 38 37 37 38 38
4 4 3 3 4 5 3 8 16 16 15 15 10 7 7 6 4 5 6 9 10 10 12 11 7 6 5 3 5 6 6 6 6 6 7 7 4 3 4 5 6 8 12 16 17 18 18 21 27 28 26 26 25 23 24 27 27 27 29 33 35 37 40 42 43 42 42 42 40 39 39 40 40 39 39 39 39 39 39 39 38 37 36 35 35 36 36
5 3 3 3 4 4 5 12 18 19 16 8 0 6 7 6 3 3 5 7 8 10 11 9 6 5 6 6 5 5 5 5 4 6 7 8 8 7 5 4 5 6 6 10 13 15 18 24 28 28 27 26 25 23 24 25 24 27 32 36 38 40 42 42 41 41 40 41 41 41 41 41 41 41 40 38 37 37 37 37 36 35 36 36 35 34 35
5 4 2 3 4 3 8 16 19 20 13 1 7 6 7 4 3 3 5 6 5 6 8 8 4 2 4 5 1 4 6 6 6 8 7 6 8 9 10 11 11 7 3 2 5 9 14 18 21 26 27 25 23 25 24 22 24 32 37 39 40 41 41 38 37 38 39 40 43 43 43 42 40 40 39 37 36 37 37 35 34 34 35 35 34 33 34
4 4 2 3 4 3 11 17 18 13 4 4 4 7 9 3 4 5 4 5 6 7 7 7 7 5 4 5 5 6 7 7 8 10 10 10 11 12 14 18 18 11 6 5 4 4 5 4 8 18 23 21 21 22 21 23 33 40 40 39 39 38 35 32 32 34 35 37 39 40 40 40 38 38 39 38 37 37 35 34 34 34 34 33 32 31 32
1 3 2 2 5 3 12 16 12 7 5 2 6 12 13 7 0 4 5 4 6 9 9 8 8 8 7 6 6 7 7 8 8 9 10 10 11 11 12 16 18 13 8 8 10 9 8 4 2 12 18 19 18 17 19 26 33 32 30 30 30 29 28 28 30 32 34 36 36 37 37 37 37 36 36 36 36 36 35 34 33 32 32 31 30 28 28
3 3 4 3 3 4 9 9 6 6 7 8 10 10 9 7 4 1 5 5 4 8 11 10 8 9 8 7 7 8 8 9 8 9 10 10 9 10 10 12 16 15 10 8 11 14 14 10 4 5 13 17 15 13 17 21 19 16 18 21 22 23 26 29 30 32 34 36 37 36 36 36 36 36 35 35 35 34 34 33 31 29 28 29 28 27 26
3 3 4 3 1 3 4 4 5 8 9 10 12 11 7 6 6 2 4 5 4 6 11 10 9 9 8 7 8 8 8 9 9 8 9 9 8 9 9 12 16 15 12 11 12 14 16 14 9 3 5 12 13 13 17 18 15 15 17 17 19 22 25 28 30 32 33 34 35 36 36 36 36 36 35 34 33 33 33 32 29 27 26 27 27 25 25
2 2 2 3 2 2 4 4 5 7 9 11 12 12 10 8 7 4 4 6 5 5 8 10 9 7 7 8 8 8 8 8 8 8 8 8 8 8 8 10 12 13 12 12 11 11 14 15 12 9 3 5 10 13 16 16 16 18 19 20 22 24 25 27 30 30 31 32 35 36 37 38 37 37 36 34 33 32 31 30 28 26 25 25 26 25 25
2 2 2 3 3 0 3 6 7 8 11 11 11 10 10 11 9 5 4 7 8 8 9 11 10 7 7 9 9 7 8 8 7 7 8 8 7 8 8 8 10 11 10 9 8 8 10 12 11 9 7 4 1 5 9 10 12 16 20 22 24 25 27 30 32 33 34 35 35 36 37 38 37 35 34 34 33 31 30 29 27 24 22 20 17 18 21
2 3 3 4 4 3 4 5 6 6 8 10 11 11 12 13 11 7 7 7 8 10 10 10 11 10 9 9 9 8 8 8 7 7 7 7 7 8 9 9 10 9 8 6 5 5 7 10 11 10 10 9 6 4 3 6 9 12 17 21 24 26 29 30 32 34 35 36 35 35 35 35 34 33 33 35 35 35 37 37 33 30 28 26 23 20 20
2 3 2 4 5 3 4 5 5 5 5 7 10 13 13 13 11 8 10 11 9 10 9 9 11 12 10 8 10 10 9 8 8 7 7 7 7 7 8 10 9 8 7 5 5 5 7 10 11 11 12 11 9 7 5 5 8 11 14 16 19 22 25 27 30 32 32 33 33 31 30 30 31 32 35 39 40 40 42 45 45 44 41 38 38 35 31
2 2 2 3 5 3 1 3 4 5 5 5 9 10 10 12 10 8 9 11 11 11 10 9 12 12 9 8 10 11 9 8 8 7 7 6 6 6 8 10 10 10 9 8 7 7 7 9 10 11 11 10 10 8 6 4 6 9 11 11 11 13 15 18 21 25 27 30 31 29 30 32 32 30 29 34 39 40 41 42 46 47 43 39 40 41 38
3 4 4 3 4 4 2 1 2 4 4 5 8 7 7 10 10 8 8 10 11 11 10 10 11 11 9 8 10 11 9 8 8 8 8 7 6 8 10 10 9 10 11 10 10 9 10 9 10 11 12 11 10 9 7 3 2 5 8 8 5 3 3 3 2 2 6 13 20 28 32 33 32 29 25 23 25 31 37 40 39 38 36 37 39 39 37
3 3 4 4 5 5 3 2 3 4 4 5 7 5 6 8 8 7 8 9 8 8 9 9 9 9 9 9 10 11 10 9 8 9 10 11 11 12 13 13 11 10 11 11 10 11 11 10 11 13 14 12 10 9 8 5 2 2 5 7 10 13 14 14 14 14 13 10 2 11 22 29 32 32 28 25 24 26 33 37 36 33 33 35 36 35 35
4 1 2 5 7 7 5 4 4 5 5 5 5 4 5 6 7 7 9 9 8 7 8 9 8 8 10 10 10 10 10 9 9 10 11 13 14 14 14 15 13 12 12 12 11 12 13 13 12 13 13 12 10 9 7 5 3 4 6 11 14 16 17 17 17 17 17 15 13 10 6 7 21 31 33 29 28 31 34 35 35 33 31 30 32 33 32
5 2 2 6 7 5 4 4 5 5 5 4 3 3 3 3 5 6 8 9 8 7 7 8 8 9 11 10 9 10 10 9 12 13 11 10 12 13 13 13 14 14 14 14 14 13 14 15 15 14 13 11 9 7 6 5 6 8 11 14 15 15 17 19 19 18 17 16 15 10 10 12 8 14 29 38 37 35 33 31 31 31 28 24 26 27 25
5 4 5 6 5 4 3 4 5 4 5 5 3 2 4 3 3 5 7 8 9 9 8 8 8 9 11 11 10 11 11 11 12 12 10 9 10 12 12 14 16 18 18 18 16 14 14 15 16 15 14 11 8 5 5 7 9 11 14 15 14 13 12 11 11 12 11 13 15 11 6 5 10 13 7 28 39 36 29 26 27 30 28 22 21 23 24
5 4 4 4 5 5 5 5 6 6 6 6 4 2 4 4 5 7 8 10 9 7 7 10 11 10 10 10 10 10 11 11 11 9 8 9 11 12 14 16 18 18 19 19 18 15 15 16 16 15 14 11 8 7 7 9 12 14 15 16 16 15 12 7 5 5 7 11 13 10 6 8 5 10 12 22 32 32 30 31 33 33 29 22 20 22 23
3 4 4 5 6 6 6 6 6 6 6 5 5 4 3 4 7 8 9 8 7 6 7 9 11 10 9 9 9 9 9 8 8 8 9 12 14 14 14 17 20 21 21 20 19 17 16 16 16 15 13 11 10 9 8 10 13 14 15 16 17 17 16 12 9 7 3 4 11 16 16 15 11 10 17 25 26 27 30 34 36 33 28 24 23 22 22
4 6 7 7 6 7 7 7 6 6 5 6 6 6 5 6 8 8 7 7 6 7 7 7 8 9 9 8 8 9 8 8 9 11 14 16 18 17 16 17 19 18 17 17 18 18 17 17 16 14 13 11 12 11 11 12 15 15 15 16 16 16 17 17 16 13 7 2 5 13 20 22 18 16 20 24 24 24 26 30 33 32 27 24 25 25 24
6 7 7 7 7 8 7 5 5 6 5 5 6 6 6 7 8 7 6 6 6 7 7 7 8 8 8 8 10 12 13 12 14 16 18 19 20 19 19 18 15 10 10 13 17 18 18 18 17 14 12 10 11 12 13 14 16 17 16 17 17 17 18 21 22 19 14 8 6 9 16 21 22 21 22 23 23 23 23 25 27 26 24 23 24 26 28
10 10 8 8 8 8 7 5 5 6 6 6 6 7 6 6 6 6 5 5 6 6 7 7 7 7 8 10 13 14 13 14 16 17 18 19 20 20 20 19 16 14 14 17 19 19 19 19 17 14 12 11 11 12 13 15 17 18 17 17 18 18 18 19 21 21 18 14 10 10 15 20 23 24 23 22 22 23 23 23 23 23 23 24 25 27 29
11 10 8 7 8 8 7 6 6 6 6 6 5 5 5 5 5 5 4 5 5 5 6 5 5 8 11 13 14 13 12 13 14 14 15 16 17 18 19 19 20 20 20 19 19 20 21 20 17 14 13 13 15 15 15 14 15 18 19 20 20 21 20 20 20 20 19 16 14 13 16 19 22 23 23 23 23 23 23 23 23 23 22 23 25 27 28
8 9 7 6 8 8 7 6 6 6 6 6 5 5 5 5 4 4 4 5 5 4 5 5 7 10 13 14 13 12 11 10 8 8 10 12 14 16 17 19 21 23 24 23 22 21 19 19 20 19 17 16 16 16 17 18 17 17 17 19 21 21 22 22 22 21 20 18 17 17 18 19 21 22 23 24 24 24 24 23 23 22 21 21 23 25 26
7 9 8 7 7 8 8 7 7 6 6 7 7 6 6 5 5 5 5 5 4 4 6 8 10 12 13 12 10 9 8 7 6 7 10 12 13 15 17 19 20 21 23 24 23 21 18 17 18 19 18 17 17 16 16 16 17 17 15 13 15 17 17 17 18 19 19 19 19 20 20 20 21 22 23 24 23 23 23 22 22 22 20 19 21 24 25
7 7 7 6 7 8 8 7 6 6 7 7 6 7 7 6 6 7 7 6 6 7 9 12 13 12 11 9 8 8 8 9 10 11 12 12 14 16 18 19 18 17 17 18 19 19 17 16 16 16 16 16 16 17 16 16 15 14 12 11 12 13 13 14 14 15 16 17 17 18 18 19 19 20 21 22 22 22 22 21 19 19 19 18 20 22 23
7 7 7 6 6 6 6 5 6 7 7 6 6 7 7 7 7 9 10 10 10 11 13 14 12 9 9 11 13 13 13 13 13 13 13 14 16 18 18 16 15 14 11 12 15 17 17 16 16 16 16 14 13 13 14 15 14 12 9 9 9 10 10 11 11 11 12 13 14 15 16 17 17 17 18 19 20 20 20 20 19 19 18 18 18 20 22
9 10 9 7 6 6 6 8 9 10 8 7 7 8 9 9 10 12 13 13 13 14 16 15 13 12 13 14 15 14 14 13 13 15 16 17 19 19 15 14 14 13 10 11 16 19 19 18 18 17 16 14 12 11 11 10 10 9 7 6 6 7 8 9 9 9 9 10 11 12 13 14 14 14 15 16 17 18 19 19 19 18 18 18 19 20 23
10 10 8 7 7 8 8 9 11 12 11 9 7 8 11 13 15 15 14 13 14 15 15 15 15 14 13 12 10 11 12 14 15 16 17 18 19 18 17 16 16 14 12 14 19 21 21 21 21 20 18 14 12 10 9 7 6 7 7 5 4 6 8 10 10 9 9 10 10 11 11 11 13 14 14 14 15 16 17 17 18 17 17 18 19 19 21
7 7 7 8 8 7 6 6 9 12 12 11 9 9 12 15 16 15 14 14 14 16 17 17 15 12 10 9 8 9 12 15 16 16 16 18 18 16 15 16 18 17 15 16 17 18 19 20 20 20 19 16 13 11 10 8 8 9 9 8 7 7 8 11 13 11 9 9 9 8 8 7 7 11 14 15 15 16 17 17 18 18 17 16 16 17 18
4 5 6 7 6 5 5 7 9 11 12 12 13 14 16 17 16 13 12 13 15 17 19 18 15 11 10 11 11 12 14 17 17 17 17 16 14 10 8 10 15 18 19 20 21 20 19 19 18 17 16 15 13 11 10 10 10 10 10 9 7 5 4 7 9 8 6 5 4 3 4 3 1 3 6 10 14 17 18 18 17 17 16 15 15 16 17
7 8 9 8 6 6 8 9 10 11 12 15 17 19 19 19 18 16 15 17 18 18 18 18 16 15 15 15 15 16 17 17 17 18 18 17 14 10 8 10 16 19 20 22 24 24 23 21 19 17 16 15 13 10 8 7 7 7 7 5 3 1 1 2 3 2 2 0 1 2 4 4 3 2 3 5 9 14 17 17 16 16 15 15 16 17 17
12 12 11 10 9 10 11 12 12 11 12 15 19 22 22 22 22 21 20 20 20 20 19 20 20 19 19 19 18 17 17 17 17 18 20 22 23 20 16 15 18 21 21 21 23 25 25 24 21 19 18 18 16 12 8 5 4 4 5 3 1 0 2 3 4 4 4 4 5 5 7 6 5 9 11 12 13 14 16 16 15 15 15 15 15 15 14
13 12 11 10 12 13 14 14 13 12 11 15 20 24 24 23 23 23 22 21 21 20 21 21 20 20 21 21 19 16 15 17 17 17 16 18 20 21 20 20 21 22 23 25 26 26 26 26 26 24 23 23 22 20 17 12 7 4 2 1 1 2 4 5 5 5 5 6 8 11 12 9 9 13 16 17 16 15 16 16 15 15 14 13 13 12 12
14 15 16 16 16 16 15 13 13 14 16 20 23 24 23 23 23 24 24 23 22 21 22 22 20 20 20 20 19 19 20 21 22 19 15 10 10 14 19 22 23 24 26 28 28 28 28 27 27 27 28 28 28 27 27 24 19 14 8 3 1 2 2 1 1 2 5 8 9 12 14 14 14 14 15 16 16 16 16 16 16 15 15 14 14 13 13
16 19 20 19 17 16 17 18 20 22 24 23 20 18 20 23 23 23 24 24 23 22 23 24 23 21 20 19 19 21 24 27 28 26 22 17 15 17 21 23 24 26 30 31 30 28 28 28 28 28 28 28 29 29 30 30 29 27 23 18 13 8 6 6 5 2 3 8 11 14 16 17 14 11 11 13 16 17 17 17 17 16 15 15 14 14 14
17 18 19 18 18 19 22 25 25 24 20 14 10 11 16 21 22 22 23 24 25 25 25 26 25 24 24 23 21 19 20 22 24 25 26 26 26 26 27 27 26 28 31 32 31 30 29 28 28 28 27 27 27 28 28 28 29 30 30 29 27 23 20 16 13 10 6 3 6 11 15 15 13 12 13 16 17 18 19 19 18 18 17 16 16 15 15
18 17 18 21 22 22 24 25 21 16 12 10 10 11 14 18 20 21 22 24 25 25 25 26 26 26 26 26 25 23 22 21 18 17 21 26 29 28 28 29 29 30 32 32 31 31 31 30 29 28 28 28 28 28 28 28 29 29 29 29 29 29 29 27 24 20 17 13 9 6 5 6 7 10 13 17 19 21 22 21 20 19 19 18 17 17 16
20 20 22 24 23 22 21 19 13 10 11 15 17 16 17 18 19 19 19 21 24 25 24 25 25 25 26 26 26 26 27 25 21 17 20 25 27 27 27 27 28 29 31 31 30 30 31 31 30 29 29 30 30 30 30 30 30 30 30 29 29 29 29 29 28 27 25 22 19 15 12 10 7 5 5 7 11 15 17 19 20 21 21 20 19 18 18
22 21 21 20 20 20 19 15 12 12 16 18 18 19 20 19 17 16 17 19 21 22 24 25 25 25 25 25 25 25 25 26 24 23 24 25 25 25 26 27 27 28 28 29 29 30 31 31 31 31 31 31 31 31 31 31 32 32 32 32 31 30 29 28 27 28 28 28 26 24 21 18 15 12 9 6 5 4 5 8 11 14 17 18 19 20 20
19 18 17 18 20 22 22 20 19 19 21 21 21 21 22 20 17 18 21 21 20 20 21 23 24 25 25 25 25 25 24 23 24 24 25 25 25 25 25 26 26 27 27 27 28 28 29 30 30 30 30 31 31 31 31 31 32 32 33 33 33 33 32 31 30 29 29 29 29 29 28 26 24 21 18 15 11 8 5 3 1 4 7 10 12 15 17
21 20 20 22 23 24 25 25 25 24 24 24 24 24 23 22 21 21 22 22 21 20 19 19 21 23 25 25 26 26 25 24 24 24 24 24 24 24 24 24 25 25 26 26 26 26 26 27 27 27 27 28 28 28 29 30 30 31 31 32 32 32 32 32 31 30 30 29 29 29 29 29 28 27 25 23 20 17 14 12 9 6 3 1 3 6 9
Wind_Direction
305 299 291 283 263 239 219 205 211 217 215 212 216 219 198 166 197 230 209 185 202 223 229 234 243 243 242 243 233 221 228 234 230 225 219 215 213 207 201 200 198 197 201 202 199 198 198 196 196 196 198 199 198 199 199 197 196 197 196 196 198 200 201 204 207 208 208 208 210 211 211 212 213 213 214 215 215 214 214 214 215 216 217 218 219 221 222
309 305 295 284 264 250 239 219 209 209 212 215 219 218 201 196 216 225 203 196 207 215 214 216 229 237 237 243 241 223 222 226 225 220 220 224 223 215 207 201 195 195 200 203 201 198 196 196 196 196 196 196 196 198 197 196 197 197 195 195 197 199 202 205 207 207 206 207 208 209 210 211 212 213 214 214 214 214 215 215 215 215 216 218 219 221 222
304 304 309 312 291 255 244 241 223 210 211 215 219 217 202 202 223 230 216 207 222 240 228 218 230 241 249 274 257 242 229 209 202 208 217 223 225 220 210 201 194 192 195 199 200 198 199 200 197 195 196 196 196 197 196 196 197 195 194 196 198 200 204 206 205 204 204 205 206 208 210 211 212 212 213 213 214 214 214 215 214 214 215 217 219 222 223
296 302 331 332 321 296 251 241 233 219 210 212 219 214 196 192 205 220 227 220 234 248 233 232 257 263 257 246 237 247 252 219 193 203 216 217 215 216 212 203 195 192 193 195 194 195 200 201 198 197 197 196 196 196 196 197 196 193 194 197 200 203 206 205 203 202 203 203 205 207 209 210 211 212 212 212 213 214 214 214 213 213 214 216 219 221 222
287 298 318 320 319 309 254 232 225 221 215 211 215 216 212 200 189 203 222 219 224 231 204 199 246 251 245 242 232 230 244 237 212 208 216 215 208 202 202 202 198 194 196 197 195 196 197 196 199 201 198 195 195 196 198 197 193 191 194 198 201 204 205 203 202 203 202 202 204 206 207 208 209 210 210 211 212 212 213 213 212 213 215 216 219 220 221
284 295 310 315 295 251 247 236 209 210 217 209 204 213 220 211 197 202 220 217 224 226 183 182 220 237 243 243 233 222 227 230 227 225 225 223 216 206 199 200 203 201 202 202 200 200 200 199 200 201 199 198 198 198 197 193 189 191 195 198 201 203 203 202 203 203 202 203 205 207 207 207 207 208 209 211 212 212 212 211 211 213 215 216 219 220 220
273 294 311 309 253 233 261 290 205 205 209 195 196 214 221 216 212 207 199 215 229 222 189 191 209 227 240 229 218 243 247 225 217 227 236 232 224 215 205 203 209 210 206 204 202 204 206 204 201 199 200 200 199 197 194 190 190 193 196 198 201 202 202 202 202 202 202 204 206 207 206 205 205 207 209 210 211 210 210 210 212 214 215 216 219 219 221
259 285 272 244 261 278 288 309 342 233 205 177 185 213 245 241 214 198 196 209 219 205 188 187 177 177 201 200 155 298 297 261 219 221 234 231 219 218 217 210 208 204 195 196 200 205 206 202 198 198 199 196 195 195 193 191 193 195 196 198 201 202 201 202 202 202 202 204 206 206 205 204 205 207 208 209 209 208 209 211 213 214 215 217 218 219 221
232 249 258 257 285 296 293 311 6 350 326 265 198 198 241 266 208 189 198 201 199 181 162 166 174 169 125 40 343 315 325 320 275 246 238 222 210 221 231 221 217 218 211 204 201 197 194 193 196 199 198 195 194 194 192 192 194 195 196 199 201 201 201 202 202 203 203 204 205 205 204 203 205 207 208 208 208 207 208 210 211 213 215 216 218 219 220
215 233 268 278 276 274 266 321 333 332 327 314 278 210 223 265 222 188 186 183 178 156 145 157 170 130 84 61 299 302 322 334 329 308 288 253 215 227 232 223 218 214 208 206 201 191 185 189 196 198 197 195 194 192 190 192 193 194 197 201 202 202 203 204 203 204 203 204 204 204 203 204 206 208 208 208 208 207 207 209 211 213 214 215 217 219 220
233 209 233 258 251 243 265 329 332 328 324 319 297 226 229 263 232 175 162 171 170 156 153 158 150 111 109 189 256 287 309 323 337 336 334 344 346 306 257 243 245 228 204 195 191 187 187 195 198 195 191 190 189 191 193 192 192 194 199 203 203 204 206 206 206 205 203 203 204 203 204 205 206 207 208 209 209 208 208 209 211 213 214 215 217 218 219
222 184 211 253 255 260 319 342 334 319 312 324 175 207 237 255 240 158 149 173 174 154 149 146 130 129 156 188 244 292 315 324 348 4 357 349 351 354 356 350 330 302 248 197 180 180 193 201 198 191 187 185 186 191 194 192 193 199 204 205 206 208 210 209 207 206 204 204 204 204 205 206 206 207 209 209 208 207 208 210 211 212 213 215 216 217 217
195 169 199 278 266 281 341 341 327 312 303 225 154 206 244 227 184 153 146 166 164 139 136 131 111 130 164 160 203 345 6 12 6 6 2 356 360 3 6 15 22 14 341 245 210 209 211 208 198 188 184 183 189 194 191 190 198 205 208 208 208 210 212 210 208 207 206 205 206 206 207 206 205 206 208 207 206 207 207 208 209 211 213 214 214 215 215
185 152 138 301 271 318 358 338 319 316 318 167 187 285 296 268 161 142 132 139 127 106 99 104 106 105 97 87 69 40 36 33 15 6 8 12 10 7 7 10 14 23 45 52 21 333 308 280 210 193 188 189 196 196 191 198 207 209 210 210 211 212 212 210 209 209 209 209 209 209 209 207 205 205 206 206 205 206 206 207 208 209 210 211 211 212 211
107 101 105 274 250 309 357 341 326 354 26 288 288 306 305 301 262 126 112 104 115 109 95 93 103 104 88 71 63 53 45 44 34 20 19 19 13 10 12 10 8 14 38 61 53 37 26 25 189 196 198 202 206 202 202 210 214 215 214 214 213 212 210 209 209 209 210 211 211 211 210 208 206 205 204 204 204 204 204 205 206 207 207 205 204 203 202
132 155 181 215 248 311 350 343 322 336 336 309 304 305 295 295 304 131 103 77 89 113 109 104 98 90 80 69 62 56 45 40 40 32 26 24 20 16 15 16 22 28 32 34 37 36 37 42 65 180 198 205 208 211 218 223 225 225 224 218 214 212 210 209 210 210 209 210 211 211 212 209 206 205 203 201 202 202 202 203 202 202 201 198 195 191 189
146 167 182 171 228 312 334 325 298 313 327 328 330 329 313 295 301 315 103 93 78 98 106 102 89 81 81 72 62 61 54 43 42 40 33 28 24 21 21 24 32 40 41 31 30 30 30 33 41 57 198 204 205 211 221 225 226 224 222 217 213 213 211 210 210 209 208 209 209 210 211 208 206 205 201 198 198 198 199 199 198 196 194 191 188 185 182
103 74 113 127 133 304 322 317 310 334 350 344 343 348 338 312 310 338 88 103 91 89 100 98 89 89 100 93 78 72 68 57 47 44 41 35 30 30 31 28 34 45 47 38 33 28 22 24 32 35 42 196 205 213 217 217 217 217 212 208 209 210 209 211 211 209 207 208 209 210 209 208 207 206 201 196 195 195 194 193 192 192 190 187 184 180 177
149 133 162 146 143 112 354 340 335 4 9 350 347 357 341 317 316 345 57 88 86 78 79 85 88 87 85 86 82 73 69 64 55 51 49 41 36 37 37 34 41 52 55 44 36 29 18 17 23 28 34 44 216 226 219 212 212 213 209 205 206 207 207 210 210 207 206 207 207 207 206 205 205 204 201 196 191 189 188 187 184 180 175 171 173 174 170
152 136 165 147 129 106 40 4 349 10 8 346 349 2 345 323 323 353 34 55 72 75 71 77 85 76 63 67 72 67 62 58 52 53 54 47 43 43 42 43 49 57 63 60 50 34 13 8 12 18 23 23 14 342 273 232 219 215 214 211 210 210 209 209 208 207 208 207 204 203 203 203 201 198 195 193 190 190 190 185 175 167 161 161 168 176 173
121 111 160 140 125 87 20 10 3 2 352 348 5 6 343 321 325 4 39 45 52 67 72 78 82 74 59 59 67 66 62 57 51 49 50 48 45 40 38 39 40 41 43 44 48 45 26 13 13 17 17 13 5 350 319 262 229 218 216 217 217 216 212 208 206 206 206 205 203 200 195 193 192 193 192 191 189 190 192 190 183 176 172 172 175 177 176
159 149 184 153 136 128 349 345 2 0 347 9 29 12 333 317 324 359 45 56 54 57 61 68 79 78 66 60 69 69 63 56 52 48 46 46 42 33 33 35 31 27 20 13 16 23 15 12 22 27 24 18 9 359 342 296 245 218 205 202 208 214 215 212 210 207 204 202 199 192 184 180 178 178 182 187 189 188 187 187 186 185 182 182 180 175 170
203 174 172 156 125 129 178 257 27 29 10 30 49 26 328 316 325 349 36 58 61 61 58 57 70 79 75 65 71 72 62 54 55 51 43 40 34 26 28 32 30 26 22 18 16 11 1 5 22 28 27 27 22 17 13 353 275 211 191 173 145 99 47 23 357 268 224 207 192 182 178 175 169 159 152 157 171 177 175 174 178 184 186 185 182 176 170
242 182 169 154 124 123 155 171 83 62 40 41 51 34 341 324 329 355 30 44 49 63 68 62 65 78 80 71 70 71 63 52 50 51 46 43 39 33 32 34 34 32 31 32 30 22 18 23 27 25 26 28 27 28 33 37 67 161 161 128 94 73 63 59 54 49 38 24 22 184 181 176 167 156 141 128 127 143 158 166 171 178 183 182 179 176 174
263 257 170 144 127 129 145 134 92 64 47 42 35 18 1 346 342 6 35 36 26 39 62 65 60 66 73 72 66 66 64 50 42 46 48 44 40 37 34 32 33 37 41 42 41 38 41 44 40 33 33 35 35 37 39 48 81 104 111 108 101 95 92 87 82 79 72 57 36 11 327 214 176 162 151 137 123 124 135 145 151 158 167 173 173 171 171
264 261 148 121 111 119 138 121 89 67 63 63 37 342 337 357 10 29 46 45 28 21 41 55 50 49 59 67 66 64 63 54 45 44 45 43 39 36 33 32 36 41 43 43 43 44 50 55 50 41 37 36 36 39 44 62 89 99 103 105 104 102 101 100 97 95 92 91 89 66 4 330 284 198 168 151 135 124 122 124 128 133 139 150 159 160 158
251 208 157 132 111 101 107 113 110 100 93 91 75 328 304 329 31 48 56 55 44 30 33 44 47 44 45 48 55 61 61 56 50 44 39 36 37 37 39 43 47 49 48 46 43 45 54 60 57 47 40 39 41 46 62 88 102 107 109 110 108 103 101 104 111 116 117 113 109 103 80 24 334 304 194 138 126 120 117 115 112 112 116 128 144 148 147
220 189 160 141 136 128 117 114 112 99 85 85 81 19 329 351 34 45 44 42 36 27 32 42 49 51 44 36 41 52 53 51 51 47 36 31 34 39 47 52 53 53 53 50 44 43 52 60 58 49 43 47 61 76 93 105 107 106 107 109 108 106 104 98 99 127 154 151 139 129 116 110 69 358 32 85 101 108 114 115 111 110 114 124 135 139 141
170 133 105 106 118 119 110 99 90 81 71 70 72 55 22 31 48 45 33 23 17 20 35 40 44 52 53 43 40 46 43 38 40 38 32 31 33 38 49 56 55 54 52 50 47 45 47 52 53 46 40 50 72 90 101 103 102 103 108 110 109 107 109 112 109 98 96 162 168 161 147 132 120 82 69 79 91 101 108 112 114 115 120 126 129 131 135
140 115 111 113 109 101 95 89 86 82 68 59 62 58 44 50 59 50 27 16 19 26 32 35 40 48 50 45 44 47 44 38 36 35 34 33 31 31 41 52 55 50 43 40 43 46 48 49 46 40 37 50 68 79 88 97 100 99 102 107 109 108 110 114 115 109 94 85 171 157 142 131 123 109 96 93 96 99 105 112 117 120 124 128 130 133 134
123 104 102 105 100 94 91 91 96 91 73 59 62 59 47 51 61 54 30 22 26 26 26 31 38 42 42 43 48 51 50 47 44 41 40 37 33 30 33 42 49 51 45 43 45 47 51 52 47 41 44 56 67 73 81 94 103 105 106 109 108 103 102 105 107 106 107 114 130 134 127 122 117 110 103 100 101 104 108 113 117 122 127 129 133 137 140
109 94 89 90 90 89 85 80 85 83 73 64 62 55 44 46 54 51 38 32 32 28 27 28 28 30 37 45 50 51 51 51 48 43 39 36 34 33 34 37 39 40 43 48 52 55 56 53 48 47 57 66 71 78 88 98 106 109 112 114 111 105 101 105 108 111 115 123 127 120 113 111 111 110 109 110 114 118 120 121 123 129 133 135 137 142 146
115 105 102 98 93 89 83 76 75 74 69 64 57 48 45 46 45 40 39 41 41 37 34 28 24 32 42 47 50 50 51 50 46 40 32 28 28 32 37 39 39 37 35 38 48 58 63 62 59 58 63 66 65 66 71 83 96 106 110 112 112 114 117 121 123 127 131 134 131 120 112 112 115 118 120 123 127 129 130 131 132 134 137 140 145 149 151
110 111 112 112 107 103 98 90 84 79 72 66 59 54 47 39 31 32 38 42 43 39 33 29 33 41 47 49 48 47 49 48 41 30 25 25 28 34 40 43 45 44 41 38 38 43 55 67 72 71 69 69 68 61 55 55 63 78 96 109 113 117 122 127 130 131 131 130 127 121 117 118 123 127 130 133 135 135 135 135 137 138 138 141 147 151 155
80 89 85 84 89 92 93 91 90 89 85 79 73 67 59 49 47 47 43 38 36 33 33 36 40 44 46 46 43 41 44 47 44 37 34 34 36 41 46 47 46 44 41 37 33 31 37 53 68 76 76 75 74 69 65 64 63 60 66 88 105 112 115 119 123 126 128 131 132 130 129 131 134 136 137 137 137 138 138 138 140 141 140 143 150 155 159
45 64 67 61 66 76 81 82 82 84 82 80 77 75 70 63 59 60 58 56 59 65 64 58 52 47 44 45 48 49 50 52 54 50 44 42 44 48 49 47 44 41 39 33 28 28 33 42 55 69 76 77 77 74 73 77 80 74 67 74 90 103 111 117 120 125 132 137 137 136 138 140 140 142 144 142 140 139 139 138 140 144 147 152 160 164 166
39 53 59 54 62 79 89 92 94 90 83 79 80 80 78 73 68 69 70 66 66 73 75 70 64 58 54 55 57 56 54 54 57 56 52 49 50 50 47 43 40 41 38 28 25 30 38 47 56 63 66 68 72 74 72 74 79 81 83 85 85 90 102 114 121 127 133 139 140 140 142 143 141 142 146 146 144 143 145 145 146 151 157 163 170 174 177
55 60 60 54 57 65 64 69 78 80 78 76 75 75 81 84 77 68 64 60 63 73 77 76 76 75 69 63 59 52 46 47 53 56 55 53 53 51 45 38 38 41 39 39 43 46 48 51 57 60 58 56 59 63 63 69 81 91 95 90 69 61 72 87 98 108 120 131 137 138 140 142 142 142 145 149 150 152 155 154 154 158 166 171 176 181 183
68 67 64 63 67 65 56 56 63 65 65 69 70 69 76 81 79 74 66 59 64 74 80 78 76 73 67 64 60 49 43 46 52 55 55 55 56 56 50 44 46 51 51 50 52 53 52 52 54 56 55 54 58 61 64 73 96 110 116 112 69 52 62 71 77 89 105 114 119 125 132 139 144 147 150 155 159 160 161 161 163 169 175 177 177 180 184
63 60 56 54 58 61 61 61 64 64 66 70 72 72 74 78 80 80 73 64 65 74 78 77 74 70 65 65 63 55 50 52 53 55 57 57 56 56 52 45 45 50 54 53 51 50 48 48 51 53 56 59 62 65 72 84 92 90 88 89 82 75 74 75 73 73 80 90 101 116 125 130 147 160 163 164 166 166 165 167 169 171 174 175 175 178 182
73 76 75 69 65 67 71 70 68 67 67 67 68 70 74 76 77 77 70 64 64 69 72 74 75 74 71 71 69 61 58 57 56 56 58 56 53 52 48 39 40 48 57 61 59 54 49 48 49 52 58 64 67 68 71 78 84 81 72 67 70 83 103 100 87 73 57 48 53 90 116 121 183 200 167 162 166 166 165 166 168 168 170 173 176 178 182
68 70 72 71 66 63 62 61 62 62 58 58 61 66 69 71 73 71 67 65 64 63 62 64 67 66 64 64 60 55 52 54 57 58 58 56 55 60 58 46 46 53 61 63 59 54 50 47 46 48 53 57 62 66 64 62 69 74 65 48 39 49 139 138 130 128 134 122 357 50 105 138 188 208 153 163 176 168 162 162 165 167 171 177 179 180 182
52 53 54 53 51 53 55 58 62 62 57 58 65 70 71 70 71 70 66 63 62 60 59 58 59 60 59 58 55 49 44 44 50 57 61 61 63 68 71 65 57 56 59 59 54 49 46 45 45 47 51 53 54 58 60 56 58 66 62 47 17 89 115 131 143 142 148 175 188 153 123 134 186 194 187 192 192 176 163 165 169 171 176 182 183 182 183
50 51 52 51 52 56 58 60 63 64 62 63 68 72 72 71 71 72 70 67 63 62 61 59 58 61 62 61 58 53 46 41 43 51 60 64 64 64 66 66 62 57 57 57 54 49 47 47 49 52 54 55 54 55 57 59 57 46 23 328 250 176 148 146 146 137 139 164 171 155 142 150 187 193 186 185 184 174 168 169 171 171 175 181 182 180 181
50 51 53 54 55 56 59 62 66 71 71 67 65 65 69 71 72 73 73 71 66 63 64 64 63 64 67 68 68 65 61 54 49 49 53 58 56 53 56 59 59 58 59 59 56 51 49 52 55 57 57 57 56 54 53 54 57 57 57 61 175 198 180 156 158 177 174 174 170 163 163 174 190 192 183 178 177 174 170 168 168 170 176 179 178 177 178
50 50 51 53 54 54 59 63 65 65 66 65 60 56 61 68 71 71 73 74 72 68 67 66 65 65 69 72 71 69 66 61 55 53 55 60 59 56 56 57 56 57 59 59 55 50 51 55 59 59 57 56 54 51 48 49 52 54 56 59 58 52 44 36 23 358 196 188 190 190 185 182 184 185 185 183 181 177 173 172 173 176 179 178 174 172 172
51 48 47 48 49 52 56 58 57 54 55 56 52 50 60 69 73 74 74 74 73 71 69 68 66 65 67 68 67 66 67 64 56 50 54 62 64 61 59 58 57 58 60 59 55 53 55 57 59 60 59 58 56 53 49 48 49 50 50 51 51 50 48 47 45 42 48 91 175 187 184 179 178 183 191 192 189 184 182 182 180 176 172 169 167 167 168
50 48 46 46 46 48 50 53 52 48 42 39 38 43 56 68 74 75 75 76 74 71 69 69 68 66 66 66 65 64 69 72 65 53 54 63 67 65 63 62 61 62 62 59 56 55 57 58 58 58 58 58 57 54 50 48 47 47 46 46 46 46 46 47 48 50 52 55 65 94 127 147 163 177 186 189 186 182 180 180 177 173 171 170 171 172 173
51 50 49 48 46 44 45 47 47 42 39 39 39 41 49 59 63 62 65 71 73 68 64 63 62 62 64 67 67 66 70 75 76 70 66 67 69 69 67 65 64 63 63 61 57 55 57 59 59 59 59 58 56 54 51 49 47 46 46 46 46 46 46 46 47 50 53 55 57 60 61 61 68 91 136 166 173 174 175 176 176 176 177 179 182 184 184
54 53 52 50 48 47 46 45 44 43 45 45 44 46 50 54 51 44 47 59 66 64 58 54 52 53 58 63 65 67 69 72 73 72 69 67 67 67 66 65 64 63 62 61 58 56 55 56 58 59 60 60 58 56 55 54 52 51 49 49 48 48 48 47 46 47 49 51 53 55 55 54 54 56 60 72 99 141 171 185 190 191 191 192 193 193 193
57 57 57 56 55 53 52 51 51 51 50 48 47 47 49 52 50 46 48 55 61 62 59 53 48 46 49 55 57 59 61 63 65 65 65 65 65 65 64 63 63 62 60 59 58 57 56 56 58 59 61 62 61 60 59 58 57 55 54 52 50 49 48 48 48 47 46 47 49 51 52 51 51 51 50 50 50 50 51 59 154 201 206 209 210 208 205
58 58 59 59 57 55 52 51 52 53 53 52 51 49 49 51 52 49 47 50 55 58 61 58 50 44 45 50 53 55 58 61 61 61 61 62 65 67 66 63 63 63 62 61 61 60 60 60 61 62 62 63 64 62 61 60 59 58 57 56 54 52 50 50 49 48 47 46 46 47 47 47 47 48 49 49 49 48 46 46 47 54 71 138 207 215 214